Flag for Canada Weather past 2 weeks in Brantford, Ontario, Canada

Now
36 °F

Passing clouds.


Feels Like: 28 °F
Forecast: 31 / 54 °F
Wind: 10 mph from Northeast

Location: Hamilton Airport

Current Time: Apr 26, 2015 at 4:44:11 AM

Latest Report: Apr 26, 2015 at 4:00 AM


Visibility: 15 mi

Pressure: 29.80 "Hg

Humidity: 70%

Dew point: 27 °F

Location of BrantfordLocation

Historic Weather in Brantford — Graph

°F

Brantford temperature yesterday

Maximum temperature yesterday: 52 °F (at 4:00 PM)
Minimum temperature yesterday: 27 °F (at 5:00 AM)
Average temperature yesterday: 39 °F

Past Weeks' High & Low Weather Summary

 TemperatureHumidityPressure
High75 °F (Apr 13, 3:00 PM)100% (Apr 17, 3:00 AM)30.41 "Hg (Apr 17, 3:00 AM)
Low27 °F (Apr 24, 4:00 AM)21% (Apr 18, 5:00 PM)29.36 "Hg (Apr 20, 4:00 PM)
Average46 °F64%29.98 "Hg
* Reported Apr 11 3:00 AM — Apr 26 3:00 AM, Brantford, Weather by CustomWeather, © 2015

Note: Actual official high and low records may vary slightly from our data, if they occured in-between our weather recording intervals... More about our weather records

Advertising

Brantford weather history for previous 24 hours

 ConditionsComfort  
Time TempWeatherWind HumidityBarometerVisibility
3:00 AM
Sun, Apr 26
36 °FPassing clouds.9 mph70%29.80 "Hg15 mi
2:00 AM37 °FClear.9 mph60%29.80 "Hg15 mi
1:00 AM37 °FClear.7 mph60%29.81 "Hg15 mi
12:00 AM37 °FClear.9 mph65%29.83 "Hg15 mi
11:00 PM
Sat, Apr 25
39 °FPassing clouds.8 mph61%29.84 "Hg15 mi
10:00 PM39 °FPassing clouds.3 mph61%29.83 "Hg15 mi
9:00 PM39 °FScattered clouds.7 mph65%29.83 "Hg15 mi
8:00 PM43 °FPartly sunny.6 mph53%29.83 "Hg15 mi
7:00 PM46 °FScattered clouds.9 mph46%29.82 "Hg15 mi
6:00 PM50 °FScattered clouds.10 mph40%29.80 "Hg15 mi
5:00 PM50 °FPassing clouds.12 mph40%29.81 "Hg15 mi
4:00 PM52 °FPassing clouds.6 mph35%29.82 "Hg15 mi
3:00 PM50 °FPassing clouds.7 mph37%29.86 "Hg15 mi
2:00 PM48 °FPassing clouds.6 mph37%29.90 "Hg15 mi
1:00 PM46 °FPassing clouds.3 mph43%29.93 "Hg15 mi
12:00 PM45 °FPassing clouds.6 mph42%29.96 "Hg15 mi
11:00 AM43 °FPassing clouds.6 mph42%29.98 "Hg15 mi
10:00 AM41 °FPassing clouds.6 mph49%29.99 "Hg15 mi
9:00 AM36 °FPassing clouds.2 mph56%30.00 "Hg15 mi
8:00 AM30 °FPassing clouds.2 mph80%30.01 "Hg15 mi
7:00 AM27 °FPassing clouds.3 mph80%30.02 "Hg15 mi
6:00 AM27 °FPassing clouds.3 mph74%30.01 "Hg15 mi
5:00 AM27 °FPassing clouds.3 mph80%30.01 "Hg15 mi
4:00 AM28 °FPassing clouds.5 mph64%30.01 "Hg15 mi
Weather by CustomWeather, © 2015

See weather overviewHow to use our weather pages